Tracking 29781 objects as of 15-Oct-2024
HD Live streaming from Space Station
objects crossing your sky now

DELTA 1 DEB

Track DELTA 1 DEB now!
10-day predictions


NORAD ID: 42632
Int'l Code: 1975-052LR
Perigee: 1,081.4 km
Apogee: 1,698.2 km
Inclination: 99.6 °
Period: 113.4 minutes
Semi major axis: 7760 km
RCS: Unknown
Launch date: June 12, 1975
Source: United States (US)
Launch site: AIR FORCE WESTERN TEST RANGE (AFWTR)

Note: This is SATELLITE DEBRIS
Your satellite tracking list
Your tracking list is empty




NASA's NSSDC Master Catalog

Two Line Element Set (TLE):
1 42632U 75052LR  24287.40701698  .00000318  00000-0  13056-2 0  9993
2 42632  99.5639  80.8271 0397376 278.8110  76.8189 12.69823533462663
Source of the keplerian elements: AFSPC